Content
SEND FEEDBACK

Daily
Averages
Monthly
Summary
United States of America

MAURICEVILLE, TEXAS


Home > North America > United States > Texas
Elevation: 20 feet     Latitude: 30 14N     Longitude: 093 44W

WEATHER
 
SELECT A DAY
Number of Records: 110,574;   Date Range: 8/25/05 - 9/17/14
 
SHARE

PRINT THIS DATA

[ ← Previous Day ]
WEATHER ALMANAC - JUNE 19, 2013
[ Next Day → ]
[ °C ]   °F
Weather ElementAverageHighLow
Temperature77.6 °F87.8 °F (2:15 pm) (3:35 pm)
Dewpoint72.8 °F76.1 °F (10:35 am) (7:00 pm)
Humidity85.7 %96 % (12:55 am)59 % (12:35 pm)
Barometer29.99 in30.02 in (8:55 am)29.95 in (3:15 am)
Wind Speed1.3 mph6.9 mph (12:55 pm)
Weather ElementAverage
Visibility9.5 mi
Wind DirectionNNE (39.3 °)

Weather ElementTotal
Precipitation0.87 in
Heating Degree Days21.1 (Base 65)
Averaged from 71 records on June 19, 2013
WEATHER CONDITIONS BREAKOUT
WIND DIRECTION BREAKOUT
WEATHER BY HOUR - JUNE 19, 2013
[ °C ]   °F
Local TimeTemperatureDewpointHumidityBarometerVisibilityWind DirectionWind SpeedGust SpeedPrecipitationEventsConditions
12:35 AM72.1 °F70.7 °F95 %29.98 in7.0 miCalmClear
12:55 AM72.1 °F71.1 °F96 %29.98 in7.0 miCalmClear
1:15 AM73.2 °F72.0 °F96 %29.98 in10.0 miCalmClear
1:35 AM73.4 °F72.0 °F95 %29.97 in10.0 miCalmScattered Clouds
1:55 AM75.0 °F72.5 °F92 %29.97 in10.0 miCalmScattered Clouds
2:15 AM75.2 °F72.5 °F91 %29.97 in10.0 miCalmScattered Clouds
2:35 AM73.6 °F72.0 °F95 %29.96 in10.0 miCalmScattered Clouds
2:55 AM73.8 °F72.5 °F96 %29.96 in10.0 miCalmMostly Cloudy
3:15 AM74.3 °F73.2 °F96 %29.95 in10.0 miCalmOvercast
3:35 AM74.3 °F72.7 °F95 %29.95 in10.0 miCalmMostly Cloudy
3:55 AM75.4 °F73.4 °F94 %29.95 in10.0 miCalmOvercast
4:15 AM75.6 °F72.9 °F91 %29.95 in10.0 miCalmOvercast
4:35 AM74.3 °F72.5 °F94 %29.95 in10.0 miCalmOvercast
4:55 AM74.3 °F73.0 °F96 %29.96 in10.0 miCalmOvercast
5:15 AM75.0 °F73.4 °F95 %29.96 in10.0 miCalmOvercast
5:35 AM75.7 °F74.1 °F95 %29.97 in10.0 miCalmOvercast
5:55 AM77.0 °F74.1 °F91 %29.97 in10.0 miCalmOvercast
6:15 AM75.7 °F73.9 °F94 %29.97 in10.0 miCalmOvercast
6:35 AM75.2 °F73.8 °F95 %29.98 in7.0 miCalmOvercast
6:55 AM75.0 °F73.6 °F95 %29.99 in7.0 miCalmOvercast
7:15 AM75.2 °F73.8 °F95 %30.00 in7.0 miCalmOvercast
7:35 AM75.2 °F73.8 °F95 %30.00 in10.0 miCalmMostly Cloudy
7:55 AM75.9 °F74.3 °F95 %30.01 in10.0 miCalmMostly Cloudy
8:15 AM76.5 °F74.3 °F93 %30.01 in10.0 miCalmOvercast
8:35 AM77.0 °F74.5 °F92 %30.01 in10.0 miCalmMostly Cloudy
8:55 AM78.4 °F75.2 °F90 %30.02 in10.0 miCalmScattered Clouds
9:15 AM79.7 °F75.2 °F86 %30.01 in10.0 miCalmScattered Clouds
9:35 AM81.3 °F75.6 °F83 %30.02 in10.0 miCalmClear
9:55 AM82.2 °F75.9 °F81 %30.02 in10.0 miCalmScattered Clouds
10:15 AM81.5 °F75.7 °F83 %30.01 in10.0 miWNW (290°)4.6 mphOvercast
10:35 AM81.0 °F76.1 °F85 %30.01 in10.0 miCalmMostly Cloudy
10:55 AM81.7 °F74.7 °F79 %30.02 in10.0 miESE (110°)3.5 mphScattered Clouds
11:15 AM81.9 °F75.0 °F80 %30.01 in10.0 miENE (70°)3.5 mphScattered Clouds
11:35 AM83.8 °F75.6 °F76 %30.02 in10.0 miNE (50°)4.6 mphScattered Clouds
11:55 AM85.3 °F74.8 °F71 %30.01 in10.0 miCalmMostly Cloudy
12:15 PM85.5 °F72.5 °F65 %30.01 in10.0 miCalmScattered Clouds
12:35 PM85.8 °F69.8 °F59 %30.00 in10.0 miCalmClear
12:55 PM83.3 °F73.6 °F72 %30.02 in10.0 miNW (320°)6.9 mphThunderstormThunderstorm
1:15 PM84.7 °F74.1 °F70 %30.01 in10.0 miNorth (360°)5.8 mphClear
1:35 PM86.2 °F75.4 °F70 %30.00 in10.0 miNorth (360°)4.6 mphClear
1:55 PM86.7 °F74.5 °F67 %29.99 in10.0 miNorth (10°)5.8 mphClear
2:15 PM87.8 °F74.7 °F65 %30.00 in10.0 miNNE (20°)6.9 mphThunderstormScattered Clouds
2:35 PM78.1 °F70.7 °F78 %30.01 in1.8 miWSW (240°)6.9 mph0.21 inRain-ThunderstormHeavy Thunderstorms and Rain
2:55 PM75.0 °F72.3 °F91 %30.01 in1.0 miSouth (180°)4.6 mph0.64 inRain-ThunderstormHeavy Thunderstorms and Rain
3:15 PM76.3 °F73.0 °F90 %30.02 in10.0 miCalm0.01 inRain-ThunderstormLight Thunderstorms and Rain
3:35 PM0.0 °F0.0 °F30.02 in10.0 miNorthThunderstorm
3:55 PM79.0 °F73.6 °F83 %30.01 in10.0 miCalm0.01 inThunderstormMostly Cloudy
4:15 PM79.2 °F74.3 °F85 %30.00 in10.0 miCalmScattered Clouds
4:35 PM80.2 °F73.6 °F80 %30.00 in10.0 miEast (80°)3.5 mphClear
4:55 PM79.9 °F75.0 °F85 %30.00 in10.0 miCalmClear
5:15 PM80.2 °F74.8 °F84 %30.00 in10.0 miCalmClear
5:35 PM81.3 °F73.6 °F77 %29.98 in10.0 miEast (100°)3.5 mphClear
5:55 PM83.3 °F73.9 °F73 %29.99 in10.0 miEast (80°)3.5 mphClear
6:15 PM83.3 °F72.9 °F71 %29.99 in10.0 miENE (70°)5.8 mphClear
6:35 PM81.7 °F73.6 °F76 %29.98 in10.0 miEast (90°)5.8 mphClear
6:55 PM80.8 °F72.9 °F77 %29.99 in10.0 miCalmClear
7:15 PM80.2 °F72.9 °F78 %29.99 in10.0 miEast (90°)3.5 mphClear
7:35 PM80.1 °F73.0 °F79 %30.00 in10.0 miCalmClear
7:55 PM79.7 °F73.6 °F81 %29.99 in10.0 miCalmClear
8:15 PM80.1 °F74.3 °F82 %29.99 in10.0 miCalmClear
8:35 PM79.9 °F74.7 °F84 %30.00 in10.0 miCalmClear
8:55 PM79.7 °F74.7 °F84 %29.99 in10.0 miSE (130°)3.5 mphClear
9:15 PM79.5 °F75.2 °F87 %30.00 in10.0 miCalmClear
9:35 PM79.2 °F75.2 °F88 %30.00 in10.0 miCalmClear
9:55 PM79.0 °F75.4 °F89 %30.01 in10.0 miCalmClear
10:15 PM79.0 °F75.6 °F89 %30.01 in10.0 miSE (140°)3.5 mphClear
10:35 PM78.8 °F75.7 °F90 %30.01 in10.0 miCalmClear
10:55 PM77.7 °F75.2 °F92 %30.02 in10.0 miCalmClear
11:15 PM77.2 °F75.4 °F94 %30.02 in10.0 miCalmClear
11:35 PM76.5 °F75.0 °F95 %30.01 in5.0 miCalmClear
11:55 PM76.5 °F75.2 °F96 %30.02 in10.0 miCalmClear
Hourly data recorded from KORG, located miles away from Mauriceville, Texas







STORIES FROM OUR PARTNERS